Weather History for KDTO - August, 2014

Change the Weather History Date:

Wednesday, August 13, 2014

  Actual Average Record
Temperature  
Mean Temperature 78 °F -  
Max Temperature 91 °F 94 °F 102 °F (2006)
Min Temperature 66 °F 71 °F 64 °F (1996)
Cooling Degree Days 14    
Growing Degree Days 28 (Base 50)    
Moisture  
Dew Point 58 °F    
Average Humidity 52    
Maximum Humidity 84    
Minimum Humidity 30    
Precipitation  
Precipitation 0.00 in - - ()
Sea Level Pressure  
Sea Level Pressure 30.04 in    
Wind  
Wind Speed 5 mph (NE)    
Max Wind Speed 8 mph    
Max Gust Speed 17 mph    
Visibility 10 miles    
Events      
Averages and records for this station are not official NWS values.
T = Trace of Precipitation, MM = Missing Value Source: NWS Daily Summary

Daily Weather History Graph

Daily Weather History Graph

Search for Another Location

Airport or City:

Trip Planner

Search our weather history database for the weather conditions in past years. The results will help you decide how hot, cold, wet, or windy it might be!

Date:

Astronomy

Aug. 13, 2014 Rise Set
Actual Time 6:50 AM CDT 8:16 PM CDT
Civil Twilight 6:23 AM CDT 8:42 PM CDT
Nautical Twilight 5:52 AM CDT 9:14 PM CDT
Astronomical Twilight 5:19 AM CDT 9:46 PM CDT
Moon 10:17 PM CDT (8/13) 10:06 AM CDT (8/13)
Length of Visible Light 14h 18m
Length of Day
13h 26m
Waning Gibbous, 87% of the Moon is Illuminated
Aug 13
Waning Gibbous
Aug 17
Last Quarter
Aug 25
New
Sep 2
First Quarter
Sep 8
Full

Hourly Weather History & Observations

Time (CDT) Temp. Heat Index Dew Point Humidity Pressure Visibility Wind Dir Wind Speed Gust Speed Precip Events Conditions
1:53 AM 68.0 °F - 63.0 °F 84% 30.04 in 10.0 mi North 4.6 mph - N/A   Clear
2:53 AM 68.0 °F - 61.0 °F 78% 30.04 in 10.0 mi NE 5.8 mph - N/A   Clear
3:53 AM 68.0 °F - 61.0 °F 78% 30.04 in 10.0 mi NE 4.6 mph - N/A   Clear
4:53 AM 66.9 °F - 59.0 °F 76% 30.05 in 10.0 mi Calm Calm - N/A   Clear
5:53 AM 66.9 °F - 60.1 °F 79% 30.06 in 10.0 mi NNE 3.5 mph - N/A   Clear
7:53 AM 70.0 °F - 61.0 °F 73% 30.09 in 10.0 mi NNE 3.5 mph - N/A   Partly Cloudy
8:53 AM 75.9 °F - 57.9 °F 54% 30.10 in 10.0 mi East 6.9 mph - N/A   Clear
10:53 AM 82.0 °F 82.1 °F 59.0 °F 45% 30.10 in 10.0 mi ENE 8.1 mph - N/A   Clear
11:53 AM 84.0 °F 83.3 °F 57.0 °F 40% 30.09 in 10.0 mi ENE 4.6 mph 17.3 mph N/A   Clear
12:53 PM 87.1 °F 85.7 °F 55.9 °F 35% 30.09 in 10.0 mi Variable 6.9 mph - N/A   Clear
1:53 PM 88.0 °F 86.5 °F 55.9 °F 34% 30.07 in 10.0 mi NE 8.1 mph - N/A   Clear
3:53 PM 90.0 °F 88.1 °F 55.9 °F 31% 30.02 in 10.0 mi Variable 3.5 mph - N/A   Clear
4:53 PM 91.0 °F 89.2 °F 55.9 °F 30% 30.01 in 10.0 mi SE 4.6 mph - N/A   Clear
5:53 PM 91.0 °F 89.7 °F 57.0 °F 32% 30.00 in 10.0 mi East 6.9 mph - N/A   Clear
6:53 PM 90.0 °F 88.1 °F 55.9 °F 31% 29.99 in 10.0 mi North 6.9 mph - N/A   Clear
7:53 PM 84.9 °F 84.2 °F 57.9 °F 40% 29.99 in 10.0 mi NNE 6.9 mph - N/A   Clear
8:53 PM 82.0 °F 82.1 °F 59.0 °F 45% 29.99 in 10.0 mi NE 6.9 mph - N/A   Clear
9:53 PM 80.1 °F 80.6 °F 57.9 °F 47% 30.01 in 10.0 mi East 6.9 mph - N/A   Clear
11:53 PM 78.1 °F - 60.1 °F 54% 30.02 in 10.0 mi East 6.9 mph - N/A   Clear